Change the Weather History Date:

Sunday, May 12, 2013

  Actual Average Record
Temperature  
Mean Temperature 81 °F 78 °F  
Max Temperature 89 °F 89 °F 97 °F (2011)
Min Temperature 73 °F 68 °F 51 °F (1928)
Degree Days  
Heating Degree Days 0 0  
Month to date heating degree days 0 0  
Since 1 July heating degree days 201 287  
Cooling Degree Days 16 13  
Month to date cooling degree days 122 147  
Year to date cooling degree days 868 777  
Growing Degree Days 30 (Base 50)    
Moisture  
Dew Point 72 °F    
Average Humidity 79    
Maximum Humidity 100    
Minimum Humidity 57    
Precipitation  
Precipitation 0.00 in 0.06 in 1.08 in (1997)
Month to date precipitation 2.16 0.71  
Year to date precipitation 8.51 9.86  
Sea Level Pressure  
Sea Level Pressure 30.01 in    
Wind  
Wind Speed 8 mph (WSW)    
Max Wind Speed 17 mph    
Max Gust Speed 23 mph    
Visibility 9 miles    
Events      
T = Trace of Precipitation, MM = Missing Value Source: NWS Daily Summary

Daily Weather History Graph

Daily Weather History Graph

Search for Another Location

Airport or City:

Trip Planner

Search our weather history database for the weather conditions in past years. The results will help you decide how hot, cold, wet, or windy it might be!

Date:

Astronomy

May. 12, 2013 Rise Set
Actual Time 6:41 AM EDT 8:06 PM EDT
Civil Twilight 6:16 AM EDT 8:31 PM EDT
Nautical Twilight 5:47 AM EDT 9:00 PM EDT
Astronomical Twilight 5:16 AM EDT 9:31 PM EDT
Moon 8:39 AM EDT (5/12) 10:29 PM EDT (5/12)
Length of Visible Light 14h 14m
Length of Day
13h 24m
Waxing Crescent, 6% of the Moon is Illuminated
May 12
Waxing Crescent
May 18
First Quarter
May 25
Full
May 31
Last Quarter
Jun 8
New

Hourly Weather History & Observations

Time (EDT) Temp. Heat Index Dew Point Humidity Pressure Visibility Wind Dir Wind Speed Gust Speed Precip Events Conditions
12:53 AM 78.1 °F - 73.9 °F 87% 30.05 in 10.0 mi Calm Calm - N/A   Partly Cloudy
1:53 AM 77.0 °F - 73.9 °F 90% 30.04 in 10.0 mi Calm Calm - N/A   Scattered Clouds
2:53 AM 75.0 °F - 73.0 °F 94% 30.02 in 9.0 mi Calm Calm - N/A   Partly Cloudy
3:50 AM 75.2 °F - 73.4 °F 94% 29.98 in 7.0 mi SSE 5.8 mph - N/A   Partly Cloudy
3:53 AM 75.0 °F - 73.0 °F 94% 29.99 in 7.0 mi SSE 5.8 mph - N/A   Partly Cloudy
4:53 AM 75.0 °F - 73.0 °F 94% 29.95 in 8.0 mi SSE 5.8 mph - N/A   Clear
5:05 AM 75.2 °F - 73.4 °F 94% 29.93 in 8.0 mi SE 5.8 mph - N/A   Partly Cloudy
5:26 AM 73.4 °F - 71.6 °F 94% 29.96 in 7.0 mi Calm Calm - N/A   Mostly Cloudy
5:50 AM 73.4 °F - 71.6 °F 94% 29.98 in 9.0 mi Calm Calm - N/A   Partly Cloudy
5:53 AM 73.9 °F - 73.0 °F 97% 29.99 in 10.0 mi Calm Calm - N/A   Scattered Clouds
6:53 AM 73.9 °F - 72.0 °F 93% 30.01 in 7.0 mi Calm Calm - N/A   Clear
7:53 AM 73.9 °F - 73.0 °F 97% 30.02 in 4.0 mi SSE 3.5 mph - N/A   Mostly Cloudy
7:58 AM 73.4 °F - 73.4 °F 100% 30.02 in 1.8 mi SSE 3.5 mph - N/A   Mostly Cloudy
8:15 AM 73.4 °F - 73.4 °F 100% 30.02 in 2.5 mi Calm Calm - N/A   Overcast
8:22 AM 75.2 °F - 73.4 °F 94% 30.02 in 3.0 mi SE 3.5 mph - N/A   Overcast
8:53 AM 77.0 °F - 73.9 °F 90% 30.04 in 9.0 mi Calm Calm - N/A   Mostly Cloudy
9:06 AM 78.8 °F - 73.4 °F 83% 30.03 in 10.0 mi Calm Calm - N/A   Partly Cloudy
9:53 AM 82.9 °F 88.8 °F 73.0 °F 72% 30.04 in 10.0 mi SW 4.6 mph - N/A   Scattered Clouds
10:39 AM 84.2 °F 90.9 °F 73.4 °F 70% 30.03 in 10.0 mi Variable 6.9 mph - N/A   Mostly Cloudy
10:53 AM 84.0 °F 90.2 °F 73.0 °F 69% 30.04 in 10.0 mi SW 9.2 mph - N/A   Mostly Cloudy
11:21 AM 86.0 °F 91.8 °F 71.6 °F 62% 30.03 in 10.0 mi SW 10.4 mph - N/A   Scattered Clouds
11:53 AM 86.0 °F 91.5 °F 71.1 °F 61% 30.04 in 10.0 mi WSW 15.0 mph 19.6 mph N/A   Scattered Clouds
12:53 PM 86.0 °F 92.2 °F 72.0 °F 63% 30.02 in 10.0 mi West 13.8 mph - N/A   Scattered Clouds
1:53 PM 87.1 °F 93.6 °F 72.0 °F 61% 30.01 in 10.0 mi WSW 15.0 mph - N/A   Partly Cloudy
2:53 PM 87.1 °F 92.8 °F 71.1 °F 59% 30.01 in 10.0 mi WSW 15.0 mph 21.9 mph N/A   Partly Cloudy
3:53 PM 86.0 °F 91.5 °F 71.1 °F 61% 30.00 in 10.0 mi WSW 12.7 mph - N/A   Scattered Clouds
4:53 PM 86.0 °F 90.7 °F 70.0 °F 59% 29.99 in 10.0 mi West 15.0 mph - N/A   Clear
5:23 PM 86.0 °F 91.8 °F 71.6 °F 62% 29.98 in 10.0 mi WSW 16.1 mph - N/A   Mostly Cloudy
5:44 PM 84.2 °F 88.4 °F 69.8 °F 62% 29.99 in 10.0 mi West 13.8 mph 18.4 mph N/A   Scattered Clouds
5:53 PM 84.0 °F 88.4 °F 70.0 °F 63% 29.99 in 10.0 mi West 15.0 mph - N/A   Partly Cloudy
6:53 PM 82.0 °F 85.5 °F 69.1 °F 65% 30.00 in 10.0 mi WNW 10.4 mph - N/A   Clear
7:53 PM 81.0 °F 83.8 °F 68.0 °F 65% 30.02 in 10.0 mi WNW 6.9 mph - N/A   Clear
8:53 PM 80.1 °F 83.2 °F 70.0 °F 71% 30.04 in 10.0 mi WNW 6.9 mph - N/A   Clear
9:53 PM 79.0 °F - 71.1 °F 77% 30.05 in 10.0 mi WNW 8.1 mph - N/A   Clear
10:53 PM 79.0 °F - 72.0 °F 79% 30.06 in 10.0 mi NW 4.6 mph - N/A   Clear
11:53 PM 78.1 °F - 72.0 °F 81% 30.05 in 10.0 mi WNW 4.6 mph - N/A   Clear